WetterOnline ( https://www.wetteronline.de )

Wetter aktuell Wittenberg

Aktuelles Wetter: Wittenberg (106m)

6-stündlich | Neueste Meldungen
Ortszeit Temperatur Wetter
Mo, 21.10. 20:00 15.0° C bedeckt
Mo, 21.10. 14:00 16.4° C wolkig
Mo, 21.10. 8:00 9.0° C fast wolkenlos
Mo, 21.10. 2:00 12.6° C bedeckt
So, 20.10. 20:00 16.1° C bedeckt
So, 20.10. 14:00 19.0° C bewölkt
So, 20.10. 8:00 11.7° C bedeckt
So, 20.10. 2:00 12.4° C bewölkt
Ortszeit Temperatur Wetter
Di, 22.10. 1:30 12.1° C fast wolkenlos
Di, 22.10. 1:20 12.1° C fast wolkenlos
Di, 22.10. 1:10 11.8° C leicht bewölkt
Di, 22.10. 1:00 12.4° C wolkig
Di, 22.10. 0:50 12.4° C wolkig
Di, 22.10. 0:40 12.4° C wolkig
Di, 22.10. 0:30 12.7° C wolkig
Di, 22.10. 0:00 13.2° C wolkig
Mo, 21.10. 23:30 13.4° C wolkig
Mo, 21.10. 23:00 14.4° C bewölkt
Mo, 21.10. 22:30 13.9° C bedeckt
Ortszeit Relative Feuchte Sichtweite
Mo, 21.10. 20:00 93% 14 km
Mo, 21.10. 14:00 80% 19 km
Mo, 21.10. 8:00 97% 5.0 km
Mo, 21.10. 2:00 90% 15 km
So, 20.10. 20:00 76% 40 km
So, 20.10. 14:00 63% >70 km
So, 20.10. 8:00 86% 60 km
So, 20.10. 2:00 80% 65 km
Ortszeit Relative Feuchte Sichtweite
Di, 22.10. 1:30 98% 23 km
Di, 22.10. 1:20 98% -
Di, 22.10. 1:10 97% -
Di, 22.10. 1:00 97% 17 km
Di, 22.10. 0:50 97% -
Di, 22.10. 0:40 96% -
Di, 22.10. 0:30 96% 17 km
Di, 22.10. 0:00 93% 24 km
Mo, 21.10. 23:30 94% 18 km
Mo, 21.10. 23:00 91% 20 km
Mo, 21.10. 22:30 93% 15 km
Ortszeit Niederschlagsmenge Niederschlagsart
Mo, 21.10. 20:00 0.0 l/m2 in 12 Std. -
Mo, 21.10. 14:00 0.0 l/m2 in 6 Std. -
Mo, 21.10. 8:00 0.0 l/m2 in 12 Std. -
Mo, 21.10. 2:00 0.0 l/m2 in 6 Std. -
So, 20.10. 20:00 0.0 l/m2 in 12 Std. -
So, 20.10. 14:00 0.0 l/m2 in 6 Std. -
So, 20.10. 8:00 0.1 l/m2 in 12 Std. Regen
So, 20.10. 2:00 0.1 l/m2 in 6 Std. Regen
Ortszeit Niederschlagsmenge Niederschlagsart
Di, 22.10. 1:30 0.0 l/m2 in 1 Std. -
Di, 22.10. 1:20 keine Meldung -
Di, 22.10. 1:10 keine Meldung -
Di, 22.10. 1:00 0.0 l/m2 in 1 Std. -
Di, 22.10. 0:50 keine Meldung -
Di, 22.10. 0:40 keine Meldung -
Di, 22.10. 0:30 0.0 l/m2 in 1 Std. -
Di, 22.10. 0:00 0.0 l/m2 in 1 Std. -
Mo, 21.10. 23:30 0.0 l/m2 in 1 Std. -
Mo, 21.10. 23:00 0.0 l/m2 in 1 Std. -
Mo, 21.10. 22:30 0.0 l/m2 in 1 Std. -
Ortszeit Stärke Spitze Richtung
km/h Bft. km/h Grad Sektor
Mo, 21.10. 20:00 4 1 11 240° SW
Mo, 21.10. 14:00 7 2 11 220° SW
Mo, 21.10. 8:00 6 1 15 20° N
Mo, 21.10. 2:00 9 2 22 120° SO
So, 20.10. 20:00 11 2 18 110° O
So, 20.10. 14:00 7 2 18 190° S
So, 20.10. 8:00 7 2 11 100° O
So, 20.10. 2:00 7 2 14 110° O
Ortszeit Stärke Spitze Richtung
km/h Bft. km/h Grad Sektor
Di, 22.10. 1:30 6 1 7 360° N
Di, 22.10. 1:20 6 1 - 360° N
Di, 22.10. 1:10 6 1 - 360° N
Di, 22.10. 1:00 0 0 7 - -
Di, 22.10. 0:50 2 1 - 270° W
Di, 22.10. 0:40 2 1 - 270° W
Di, 22.10. 0:30 4 1 7 290° W
Di, 22.10. 0:00 4 1 7 270° W
Mo, 21.10. 23:30 0 0 4 - -
Mo, 21.10. 23:00 4 1 7 290° W
Mo, 21.10. 22:30 4 1 7 300° NW
Ortszeit Untergrenze Bedeckung Gattung
total tief tief mittel hoch
Mo, 21.10. 20:00 4200 m 8/8 8/8 - - -
Mo, 21.10. 14:00 8100 m 8/8 0/8 - - -
Mo, 21.10. 8:00 8400 m 2/8 0/8 - - -
Mo, 21.10. 2:00 3900 m 8/8 8/8 - - -
So, 20.10. 20:00 4500 m 8/8 8/8 - - -
So, 20.10. 14:00 2700 m 7/8 7/8 - - -
So, 20.10. 8:00 1350 m 8/8 8/8 - - -
So, 20.10. 2:00 5100 m 8/8 4/8 - - -
Ortszeit Bedeckungsgrad in Achtel und Wolkenuntergrenze
Di, 22.10. 1:30 1(2400m)
Di, 22.10. 1:20 1(2400m)
Di, 22.10. 1:10 3(2400m)
Di, 22.10. 1:00 5(2400m)
Di, 22.10. 0:50 5(2400m)
Di, 22.10. 0:40 6(2400m) 6(10500m)
Di, 22.10. 0:30 2(2700m) 6(6900m) 7(10500m)
Di, 22.10. 0:00 2(2700m) 8(7800m) 8(9000m)
Mo, 21.10. 23:30 3(6900m) 6(8100m) 8(9000m)
Mo, 21.10. 23:00 7(2700m) 7(8100m) 7(9000m)
Mo, 21.10. 22:30 8(2700m) 8(5100m) 8(8400m)
Ortszeit Luftdruck NN (hPa) Tendenz (hPa in 3 Std.)
Mo, 21.10. 20:00 1021 + 1,7
Mo, 21.10. 14:00 1019 + 1,2
Mo, 21.10. 8:00 1015 + 1,7
Mo, 21.10. 2:00 1012 + 0,5
So, 20.10. 20:00 1011 + 0,6
So, 20.10. 14:00 1011 0,0
So, 20.10. 8:00 1010 + 0,4
So, 20.10. 2:00 1010 + 0,3
Ortszeit Luftdruck NN (hPa) Tendenz (hPa in 3 Std.)
Di, 22.10. 1:30 1022 + 0,6
Di, 22.10. 1:20 1022 keine Meldung
Di, 22.10. 1:10 1022 keine Meldung
Di, 22.10. 1:00 1022 + 0,8
Di, 22.10. 0:50 1022 keine Meldung
Di, 22.10. 0:40 1022 keine Meldung
Di, 22.10. 0:30 1022 + 0,5
Di, 22.10. 0:00 1021 + 0,4
Mo, 21.10. 23:30 1021 + 0,5
Mo, 21.10. 23:00 1021 + 0,7
Mo, 21.10. 22:30 1021 + 0,7
Ortszeit Schneehöhe (cm)
Mo, 21.10. 20:00 0
Mo, 21.10. 14:00 0
Mo, 21.10. 8:00 0
Mo, 21.10. 2:00 0
So, 20.10. 20:00 0
So, 20.10. 14:00 0
So, 20.10. 8:00 0
So, 20.10. 2:00 0
Ortszeit Schneehöhe (cm)
Di, 22.10. 1:30 0
Di, 22.10. 1:20 0
Di, 22.10. 1:10 0
Di, 22.10. 1:00 0
Di, 22.10. 0:50 0
Di, 22.10. 0:40 0
Di, 22.10. 0:30 0
Di, 22.10. 0:00 0
Mo, 21.10. 23:30 0
Mo, 21.10. 23:00 0
Mo, 21.10. 22:30 0
Link zu dieser Seite / Seite empfehlen

Das Wetter in ...